Change the Weather History Date:

Friday, April 5, 2013

  Actual Average (KARR) Record (KARR)
Temperature  
Mean Temperature 39 °F 45 °F  
Max Temperature 48 °F 56 °F 76 °F (2005)
Min Temperature 30 °F 34 °F 21 °F (2000)
Degree Days  
Heating Degree Days 26 20  
Month to date heating degree days 105  
Since 1 July heating degree days 6113  
Cooling Degree Days 0 0  
Month to date cooling degree days 0  
Year to date cooling degree days 0  
Moisture  
Dew Point 22 °F    
Average Humidity 54    
Maximum Humidity 85    
Minimum Humidity 30    
Precipitation  
Precipitation 0.00 in 0.10 in 0.28 in (2010)
Month to date precipitation 0.49  
Year to date precipitation 5.81  
Sea Level Pressure  
Sea Level Pressure 30.14 in    
Wind  
Wind Speed 10 mph (NE)    
Max Wind Speed 16 mph    
Max Gust Speed 21 mph    
Visibility 10 miles    
Events Rain    
T = Trace of Precipitation, MM = Missing Value Source: NWS Daily Summary

Daily Weather History Graph

Daily Weather History Graph

Search for Another Location

Airport or City:

Trip Planner

Search our weather history database for the weather conditions in past years. The results will help you decide how hot, cold, wet, or windy it might be!

Date:

Astronomy

Apr. 05, 2013 Rise Set
Actual Time 6:30 AM CDT 7:25 PM CDT
Civil Twilight 6:02 AM CDT 7:53 PM CDT
Nautical Twilight 5:28 AM CDT 8:27 PM CDT
Astronomical Twilight 4:53 AM CDT 9:02 PM CDT
Moon 3:42 AM CDT (4/5) 2:44 PM CDT (4/5)
Length of Visible Light 13h 51m
Length of Day
12h 54m
Waning Crescent, 23% of the Moon is Illuminated
Apr 5
Waning Crescent
Apr 10
New
Apr 18
First Quarter
Apr 25
Full
May 2
Last Quarter

Hourly Weather History & Observations

Time (CDT) Temp. Windchill Dew Point Humidity Pressure Visibility Wind Dir Wind Speed Gust Speed Precip Events Conditions
12:15 AM 40.1 °F 33.6 °F 31.6 °F 72% 30.02 in 10.0 mi NNW 10.4 mph - N/A   Clear
12:35 AM 38.7 °F 32.9 °F 30.7 °F 73% 30.03 in 10.0 mi NNW 8.1 mph - N/A   Clear
12:55 AM 38.8 °F 32.6 °F 30.2 °F 71% 30.03 in 10.0 mi NNW 9.2 mph - N/A   Clear
1:15 AM 37.8 °F 30.7 °F 29.7 °F 73% 30.03 in 10.0 mi NNW 10.4 mph - N/A   Clear
1:35 AM 37.6 °F 31.6 °F 29.1 °F 72% 30.04 in 10.0 mi NNW 8.1 mph - N/A   Clear
1:55 AM 36.5 °F 29.2 °F 28.6 °F 73% 30.03 in 10.0 mi NNW 10.4 mph - N/A   Clear
2:15 AM 36.7 °F 29.4 °F 28.0 °F 71% 30.04 in 10.0 mi NNW 10.4 mph - N/A   Clear
2:35 AM 36.3 °F 29.5 °F 27.5 °F 70% 30.04 in 10.0 mi NNW 9.2 mph - N/A   Clear
2:55 AM 35.6 °F 28.6 °F 27.5 °F 72% 30.04 in 10.0 mi NNW 9.2 mph - N/A   Clear
3:15 AM 35.1 °F 27.9 °F 27.1 °F 73% 30.05 in 10.0 mi North 9.2 mph - N/A   Clear
3:35 AM 35.1 °F 26.9 °F 26.8 °F 72% 30.06 in 10.0 mi NNW 11.5 mph - N/A   Clear
3:55 AM 34.7 °F 26.9 °F 27.0 °F 73% 30.07 in 10.0 mi North 10.4 mph - N/A   Clear
4:15 AM 35.1 °F 26.9 °F 26.6 °F 71% 30.08 in 10.0 mi North 11.5 mph - N/A   Clear
4:35 AM 33.6 °F 25.0 °F 26.6 °F 75% 30.09 in 10.0 mi North 11.5 mph - N/A   Clear
4:55 AM 32.9 °F 24.7 °F 26.8 °F 78% 30.10 in 10.0 mi NNE 10.4 mph - N/A   Clear
5:15 AM 31.8 °F 24.6 °F 26.2 °F 80% 30.11 in 10.0 mi NNE 8.1 mph - N/A   Clear
5:35 AM 30.6 °F 23.8 °F 25.5 °F 82% 30.12 in 10.0 mi NNE 6.9 mph - N/A   Clear
5:55 AM 30.2 °F 23.4 °F 25.7 °F 83% 30.13 in 10.0 mi NNE 6.9 mph - N/A   Clear
6:15 AM 30.6 °F 23.1 °F 25.7 °F 82% 30.14 in 10.0 mi NNE 8.1 mph - N/A   Clear
6:35 AM 31.6 °F 24.4 °F 26.6 °F 82% 30.15 in 10.0 mi North 8.1 mph - N/A   Clear
6:55 AM 31.1 °F 23.7 °F 26.6 °F 83% 30.16 in 10.0 mi NNE 8.1 mph - N/A   Clear
7:15 AM 32.0 °F 24.8 °F 27.3 °F 83% 30.16 in 10.0 mi NNE 8.1 mph - N/A   Clear
7:35 AM 32.5 °F 24.8 °F 28.4 °F 85% 30.17 in 10.0 mi NNE 9.2 mph - N/A   Clear
7:55 AM 33.8 °F 25.8 °F 28.9 °F 82% 30.17 in 10.0 mi NNE 10.4 mph - N/A   Clear
8:15 AM 35.1 °F 27.4 °F 29.3 °F 80% 30.18 in 10.0 mi NNE 10.4 mph - N/A   Clear
8:35 AM 36.5 °F 29.2 °F 29.5 °F 76% 30.19 in 10.0 mi NE 10.4 mph - N/A   Clear
8:55 AM 37.6 °F 28.8 °F 27.7 °F 67% 30.19 in 10.0 mi NE 15.0 mph - N/A   Clear
9:15 AM 38.5 °F 30.7 °F 27.0 °F 63% 30.19 in 10.0 mi NE 12.7 mph - N/A   Clear
9:35 AM 39.6 °F 32.5 °F 26.2 °F 59% 30.20 in 10.0 mi NE 11.5 mph - N/A   Clear
9:55 AM 40.6 °F 33.8 °F 25.0 °F 54% 30.20 in 10.0 mi NE 11.5 mph - N/A   Clear
10:15 AM 41.7 °F 34.8 °F 23.0 °F 47% 30.20 in 10.0 mi ENE 12.7 mph - N/A   Clear
10:35 AM 42.4 °F 36.5 °F 22.1 °F 44% 30.21 in 10.0 mi NE 10.4 mph - N/A   Clear
10:55 AM 42.6 °F 35.9 °F 23.4 °F 47% 30.21 in 10.0 mi NNE 12.7 mph 16.1 mph N/A   Clear
11:15 AM 43.7 °F 38.1 °F 22.5 °F 43% 30.21 in 10.0 mi NNE 10.4 mph 17.3 mph N/A   Clear
11:35 AM 44.4 °F 39.0 °F 22.3 °F 42% 30.21 in 10.0 mi NNE 10.4 mph - N/A   Clear
11:55 AM 45.3 °F 39.0 °F 20.5 °F 37% 30.21 in 10.0 mi ENE 13.8 mph - N/A   Clear
12:15 PM 45.3 °F 41.1 °F 19.2 °F 35% 30.20 in 10.0 mi ENE 8.1 mph - N/A   Clear
12:35 PM 45.7 °F 42.0 °F 17.8 °F 33% 30.20 in 10.0 mi East 6.9 mph - N/A   Clear
12:55 PM 46.9 °F - 19.2 °F 33% 30.19 in 10.0 mi ENE 10.4 mph - N/A   Clear
1:15 PM 46.2 °F 41.2 °F 17.4 °F 32% 30.18 in 10.0 mi ENE 10.4 mph - N/A   Clear
1:35 PM 46.6 °F - 18.0 °F 32% 30.17 in 10.0 mi East 8.1 mph - N/A   Clear
1:55 PM 47.8 °F - 17.4 °F 30% 30.17 in 10.0 mi East 4.6 mph - N/A   Clear
2:15 PM 47.7 °F - 19.4 °F 33% 30.17 in 10.0 mi East 5.8 mph - N/A   Clear
2:35 PM 47.7 °F - 19.2 °F 32% 30.16 in 10.0 mi East 3.5 mph - N/A   Clear
2:55 PM 47.1 °F - 19.4 °F 33% 30.15 in 10.0 mi NE 6.9 mph - N/A   Clear
3:15 PM 47.5 °F - 18.5 °F 32% 30.16 in 10.0 mi Calm Calm - N/A   Clear
3:35 PM 48.7 °F - 19.9 °F 32% 30.16 in 10.0 mi East 8.1 mph - N/A   Clear
3:55 PM 48.2 °F - 19.0 °F 32% 30.15 in 10.0 mi SE 6.9 mph - N/A   Clear
4:15 PM 47.7 °F - 18.9 °F 32% 30.15 in 10.0 mi East 4.6 mph - N/A   Clear
4:35 PM 48.0 °F - 18.7 °F 31% 30.15 in 10.0 mi East 3.5 mph - N/A   Clear
4:55 PM 47.7 °F - 18.9 °F 32% 30.15 in 10.0 mi ESE 4.6 mph - N/A   Clear
5:15 PM 47.1 °F - 18.9 °F 33% 30.14 in 10.0 mi East 3.5 mph - N/A   Clear
5:35 PM 46.9 °F - 19.8 °F 34% 30.15 in 10.0 mi East 8.1 mph - N/A   Clear
5:55 PM 46.4 °F 42.9 °F 19.8 °F 35% 30.15 in 10.0 mi East 6.9 mph - N/A   Scattered Clouds
6:15 PM 45.3 °F 39.0 °F 21.0 °F 38% 30.15 in 10.0 mi East 13.8 mph - N/A   Mostly Cloudy
6:35 PM 43.9 °F 37.5 °F 21.4 °F 41% 30.15 in 10.0 mi East 12.7 mph - N/A   Mostly Cloudy
6:55 PM 41.9 °F 34.3 °F 22.3 °F 46% 30.15 in 10.0 mi East 15.0 mph - N/A   Mostly Cloudy
7:15 PM 41.0 °F 33.9 °F 21.9 °F 47% 30.15 in 10.0 mi East 12.7 mph 17.3 mph N/A   Mostly Cloudy
7:35 PM 40.1 °F 32.4 °F 22.5 °F 49% 30.15 in 10.0 mi East 13.8 mph - N/A   Overcast
7:55 PM 39.0 °F 32.8 °F 22.5 °F 52% 30.15 in 10.0 mi East 9.2 mph - N/A   Overcast
8:15 PM 38.3 °F 29.3 °F 21.6 °F 51% 30.14 in 10.0 mi East 16.1 mph - N/A   Overcast
8:35 PM 37.6 °F 30.0 °F 20.3 °F 50% 30.14 in 10.0 mi East 11.5 mph - N/A   Overcast
8:55 PM 37.4 °F 28.5 °F 16.3 °F 42% 30.13 in 10.0 mi East 15.0 mph 20.7 mph N/A   Overcast
9:15 PM 36.9 °F 27.8 °F 14.7 °F 40% 30.13 in 10.0 mi East 15.0 mph - N/A   Overcast
9:35 PM 36.5 °F 27.4 °F 13.5 °F 39% 30.11 in 10.0 mi East 15.0 mph - N/A   Light Drizzle
9:55 PM 36.0 °F 27.5 °F 12.2 °F 38% 30.13 in 10.0 mi East 12.7 mph - N/A   Mostly Cloudy
10:15 PM 35.6 °F 29.2 °F 14.9 °F 43% 30.14 in 10.0 mi East 8.1 mph - N/A Rain Light Rain
10:35 PM 35.6 °F 29.2 °F 12.0 °F 38% 30.15 in 10.0 mi East 8.1 mph - N/A   Scattered Clouds
10:55 PM 35.6 °F 28.6 °F 12.0 °F 38% 30.14 in 10.0 mi East 9.2 mph - N/A   Scattered Clouds
11:15 PM 35.1 °F 27.9 °F 13.8 °F 42% 30.13 in 10.0 mi East 9.2 mph - N/A   Scattered Clouds
11:35 PM 35.1 °F 28.6 °F 14.9 °F 44% 30.13 in 10.0 mi East 8.1 mph - N/A   Scattered Clouds
11:55 PM 35.1 °F 28.6 °F 14.4 °F 43% 30.11 in 10.0 mi East 8.1 mph - N/A   Scattered Clouds